Regional Weather Roundup
Issued by NWS Upton, NY

Current Version | Previous Version | Graphics & Text | Print | Product List | Glossary Off
Versions: 1 2 3 4 5 6 7 8 9 10 11 12 13 14 15 16 17 18 19 20 21 22 23 24 25 26 27

000
ASUS41 KOKX 060008
RWROKX

REGIONAL WEATHER ROUNDUP
NATIONAL WEATHER SERVICE NEW YORK NY
700 PM EST MON DEC 05 2016

NOTE: "FAIR" INDICATES FEW OR NO CLOUDS BELOW 12,000 FEET WITH NO
SIGNIFICANT WEATHER AND/OR OBSTRUCTIONS TO VISIBILITY.

NYZ071-072-176-178-NJZ106-104-060100-
NEW YORK CITY METRO AREA

CITY           SKY/WX    TMP DP  RH WIND       PRES   REMARKS
Central Park   CLEAR     45  31  58 VRB3      30.05R
Wall St Helipt CLEAR     46  35  65 VRB5G47   30.05R
Bronx Bot Gard NOT AVBL
LaGuardia APRT PTCLDY    47  33  58 NW12      30.03R
Kennedy INTL   MOCLDY    46  32  58 N8        30.04R
Breezy Point     N/A     45 N/A N/A NW6         N/A
Newark/Liberty MOCLDY    45  34  65 W7        30.04R
Teterboro      CLEAR     45  32  60 NW6       30.03R
$$

NYZ177-179-078>081-060100-
LONG ISLAND NEW YORK

CITY           SKY/WX    TMP DP  RH WIND       PRES   REMARKS
Jones Beach      N/A     45 N/A N/A NW8         N/A
Matinecock PT    N/A     46 N/A N/A NW13        N/A
Farmingdale    CLEAR     44  30  57 NW7       30.02R
MacArthur/ISP  PTCLDY    43  32  65 NW9       30.01R
Shirley        CLEAR     41  33  73 NW7       30.02R
Westhampton    CLEAR     40  32  73 NW6       30.02R
Southampton    NOT AVBL
Bridgehampton  NOT AVBL
East Hampton     N/A     43  32  67 NW5       30.00R
Montauk          N/A     45  35  68 NW15G23   30.00S
$$

NYZ052-065-067-060100-
HUDSON VALLEY

CITY           SKY/WX    TMP DP  RH WIND       PRES   REMARKS
White Plains   CLEAR     41  28  60 NW12      30.00S
Newburgh       MOCLDY    39  30  70 NW9       30.02S WCI  33
Montgomery     PTCLDY    35  29  78 CALM      30.02R
Poughkeepsie   CLOUDY    38  32  79 W3        30.02R
Albany         LGT RAIN  39  31  72 W12       30.00R WCI  32
$$

NJZ001-105-106-008-010-013-015-019>022-104-060100-
NEW JERSEY

CITY           SKY/WX    TMP DP  RH WIND       PRES   REMARKS
Newark/Liberty MOCLDY    45  34  65 W7        30.04R
Teterboro      CLEAR     45  32  60 NW6       30.03R
Caldwell       PTCLDY    40  34  79 S5        30.04R
Somerville     CLOUDY    35  30  82 CALM      30.04R
Linden           N/A     43  33  67 CALM      30.04R
Sussex         PTCLDY    33  32  96 CALM      30.03R
Andover          N/A     33  32  96 CALM      30.04R
Trenton        PTCLDY    40  32  73 NW3       30.05R
Millville      CLOUDY    38  37  97 CALM      30.07R
Atlantic City  CLOUDY    39  34  82 NW3       30.06R
Wrightstown    CLOUDY    37  33  87 W3        30.03R
Toms River     PTCLDY    31  30  96 CALM      30.06R
Belmar         CLOUDY   N/A N/A N/A SW3       30.06R
$$

PAZ047>061-062-071-060100-
EASTERN PENNSYLVANIA

CITY           SKY/WX    TMP DP  RH WIND       PRES   REMARKS
Philadelphia   MOCLDY    45  34  65 W7        30.08R
Allentown      CLOUDY    34  27  75 SW5       30.06R WCI  30
Scranton       CLOUDY    40  28  62 W6        30.03R
$$

CTZ002-004>006-009-010-012-RIZ004-006-007-MAZ004-011-015-060100-
SOUTHERN NEW ENGLAND
 IN CT

CITY           SKY/WX    TMP DP  RH WIND       PRES   REMARKS
Bradley INTL   CLOUDY    40  31  70 SW6       29.99S
Hartford       CLOUDY    42  33  70 W3        30.00S
Danbury        CLOUDY    37  32  82 SW3       30.02R
Wtrbury/Oxford PTCLDY    36  28  75 CALM      30.01R
Bridgeport     CLEAR     43  32  65 W5        30.02R
Meriden        MOCLDY    33  30  88 CALM      30.01R
New Haven      PTCLDY    43  33  68 W3        30.01R
Chester          N/A     39  32  75 W3        29.99S
Groton         CLEAR     44  34  67 NW9       29.99R
Wilimantic     MOCLDY    32  30  92 E5        30.00S WCI  27

 IN RI

CITY           SKY/WX    TMP DP  RH WIND       PRES   REMARKS
Providence     CLEAR     39  32  76 W14G20    29.96F WCI  31
Block Island   CLEAR     43  34  70 NW15G21   29.98S
Westerly       CLEAR     39  32  76 NW6       29.99S WCI  35
 IN MA

CITY           SKY/WX    TMP DP  RH WIND       PRES   REMARKS
Boston         CLEAR     39  33  79 W17       29.95R WCI  30
Worcester      CLEAR     34  29  82 W8        29.93S WCI  27
Westfield      CLOUDY    34  34 100 CALM      29.98S
Provincetown   CLEAR     40  35  83 W15G22    29.94S WCI  32
Nantucket      CLEAR     41  35  79 NW13      29.94F
$$

ANZ330-335-338-340-345-350-353-355-060100-
COASTAL MARINE OBSERVATIONS


STATION/POSITION TIME  SKY/WX   TEMP    WIND        PRES    VSBY  WAVE
                                AIR SEA DIR/SP/G                  HT/PER
                 (UTC)          (F)     (DEG/KT/KT) (MB)    (MI)  (FT/S)
NY HARB ENTRANCE 2350            48 53  310/ 14/ 16 1016.9          2/ 3
20 S FIRE ISLAND 2350            49 54  330/ 17/ 21 1016.4          4/ 4
GREAT SOUTH BAY  2230            45 44                N/A
23 SSW MONTAUK P 2350            48 54  310/ 16/ 19 1016.1          3/ 5
15 E BARNEGAT LI 2330               54                N/A           3/ 4
HUDSON CANYON    2250            51 58              1015.4          4/ 4
KINGS POINT      2330            46 48              1016.5
EXECUTION ROCKS  2345            46     320/ 10/ 14   N/A
CENTRAL LI SOUND 2330            47 50  310/ 12/ 14   N/A           2/ 3
EASTERN LI SOUND NOT AVBL
ROBBINS REEF     2330            46     320/  6/  7 1017.1
$$


>>>>>>>>>>>>>>>>>>>>>>>>>>>> KEY <<<<<<<<<<<<<<<<<<<<<<<<<<<
>                                                          <
>     SKY/WX - Sky Condition/Present Weather               <
>     TMP    - Temperature in Fahrenheit                   <
>     DP     - Dew Point in Fahrenheit                     <
>     RH     - Relative Humidity in Percent                <
>     WIND   - Direction (from) and Speed in MPH           <
>     PRES   - Mean Sea Level Pressure (inches of Hg)      <
>     WCI    - Wind Chill Index                            <
>     VSB    - VISIBILITY IN MILES                         <
>     HX     - HEAT INDEX                                  <
>     TC     - TEMPERATURE IN CELSIUS                      <
>     VRB    - VARIABLE WIND DIRECTION                     <
>                                                          <
>>>>>>>>>>>>>>>>>>>>>>>>>>>> KEY <<<<<<<<<<<<<<<<<<<<<<<<<<<




USA.gov is the U.S. government's official web portal to all federal, state and local government web resources and services.